Location: Champs
(48.8539°N, 2.6040°E)
Time: 09:44:26
(UTC+00:00)

USA 308 - Pass Details

Date: 30 May 2022
Orbit: 549 x 558 km, 54.0° (Epoch: 14 June)

Event Time Altitude Azimuth Distance (km) Brightness Sun altitude
Exits shadow 00:23:56 27° 249° (WSW) 1,095 4.0 -18.9°
Maximum altitude 00:26:10 80° 332° (NNW) 570 2.9 -18.9°
Drops below altitude 10° 00:30:26 10° 62° (ENE) 1,868 6.0 -18.7°
Sets 00:32:38 0° 63° (ENE) 2,749 6.9 -18.7°
